GW3385 Weather Reports


time (UTC)temp
C
wind
direction
speed
KPH
gust
KPH
rain 1hr
cm
rain 24hr
cm
rain mn
cm
humidity
%
barometer
mb
20260902130552 16 0 3.2 6.4 0.00 0.00 0.00 90 1014.3
20260902130105 16 352 0.0 6.4 0.00 0.00 0.00 91 1014.3
20260902125553 16 0 0.0 3.2 0.00 0.00 0.00 90 1014.3
20260902125055 16 0 0.0 3.2 0.00 0.00 0.00 90 1014.4
20260902124554 16 0 0.0 4.8 0.00 0.00 0.00 90 1014.4
20260902124052 16 352 0.0 6.4 0.00 0.00 0.00 90 1014.3
20260902123556 16 0 0.0 6.4 0.00 0.00 0.00 90 1014.3
20260902123109 16 335 1.6 6.4 0.00 0.00 0.00 90 1014.3
20260902122555 16 0 0.0 3.2 0.00 0.00 0.00 90 1014.5
20260902122052 16 0 0.0 3.2 0.00 0.00 0.00 90 1014.5
20260902121559 16 332 0.0 6.4 0.00 0.00 0.00 90 1014.5
20260902121054 16 0 0.0 6.4 0.00 0.00 0.00 90 1014.5
20260902120557 16 0 0.0 6.4 0.00 0.00 0.00 90 1014.5
20260902120059 16 0 0.0 0.0 0.00 0.00 0.00 89 1014.6
20260902115556 16 0 0.0 0.0 0.00 0.00 0.00 89 1014.6
20260902115054 16 0 0.0 0.0 0.00 0.00 0.00 89 1014.6
20260902114555 16 0 0.0 0.0 0.00 0.00 0.00 89 1014.6
20260902114055 16 0 0.0 0.0 0.00 0.00 0.00 89 1014.5
20260902113552 16 0 0.0 0.0 0.00 0.00 0.00 89 1014.5
20260902113101 16 0 0.0 0.0 0.00 0.00 0.00 89 1014.6
20260902112552 16 0 0.0 0.0 0.00 0.00 0.00 88 1014.6
20260902112055 16 0 0.0 0.0 0.00 0.00 0.00 89 1014.5
20260902111603 16 0 0.0 0.0 0.00 0.00 0.00 89 1014.5
20260902111055 16 0 0.0 0.0 0.00 0.00 0.00 89 1014.5
20260902110555 16 0 0.0 0.0 0.00 0.00 0.00 89 1014.5
20260902110103 16 0 0.0 0.0 0.00 0.00 0.00 88 1014.6
20260902105554 16 0 0.0 0.0 0.00 0.00 0.00 88 1014.5
20260902105054 16 0 0.0 0.0 0.00 0.00 0.00 88 1014.5
20260902104613 16 0 0.0 0.0 0.00 0.00 0.00 88 1014.5
20260902104055 16 0 0.0 3.2 0.00 0.00 0.00 88 1014.6
20260902103554 16 0 0.0 3.2 0.00 0.00 0.00 88 1014.6
20260902103109 16 0 0.0 4.8 0.00 0.00 0.00 88 1014.5
20260902102554 16 0 0.0 4.8 0.00 0.00 0.00 88 1014.6
20260902102055 16 0 0.0 4.8 0.00 0.00 0.00 88 1014.5
20260902101607 16 0 0.0 3.2 0.00 0.00 0.00 88 1014.5
20260902101057 16 0 0.0 3.2 0.00 0.00 0.00 88 1014.5
20260902100555 16 0 0.0 4.8 0.00 0.00 0.00 88 1014.5
20260902100100 16 65 1.6 6.4 0.00 0.00 0.00 88 1014.5
20260902095555 16 66 1.6 6.4 0.00 0.00 0.00 88 1014.5
20260902095056 16 72 0.0 4.8 0.00 0.00 0.00 88 1014.6
20260902094555 16 0 0.0 4.8 0.00 0.00 0.00 88 1014.6
20260902094055 16 0 1.6 4.8 0.00 0.00 0.00 88 1014.6
20260902093555 16 0 0.0 4.8 0.00 0.00 0.00 88 1014.6
20260902093054 16 0 0.0 0.0 0.00 0.00 0.00 88 1014.5
20260902092558 16 0 0.0 0.0 0.00 0.00 0.00 88 1014.6
20260902092056 16 0 0.0 0.0 0.00 0.00 0.00 88 1014.5
20260902091601 16 0 0.0 0.0 0.00 0.00 0.00 87 1014.6
20260902091055 16 0 0.0 0.0 0.00 0.00 0.00 87 1014.6
20260902090555 16 0 0.0 0.0 0.00 0.00 0.00 87 1014.5
20260902090057 16 0 0.0 0.0 0.00 0.00 0.00 87 1014.5
20260902085554 16 0 0.0 0.0 0.00 0.00 0.00 87 1014.5
20260902085054 16 0 0.0 0.0 0.00 0.00 0.00 87 1014.6
20260902084558 16 0 0.0 0.0 0.00 0.00 0.00 87 1014.6
20260902084055 16 0 0.0 0.0 0.00 0.00 0.00 87 1014.6
20260902083557 16 0 0.0 0.0 0.00 0.00 0.00 87 1014.6
20260902083057 16 0 0.0 0.0 0.00 0.00 0.00 86 1014.5
20260902082554 16 0 0.0 0.0 0.00 0.00 0.00 86 1014.5
20260902082055 16 0 0.0 0.0 0.00 0.00 0.00 86 1014.6
20260902081601 16 0 0.0 0.0 0.00 0.00 0.00 86 1014.6
20260902081055 16 0 0.0 0.0 0.00 0.00 0.00 85 1014.5
20260902080555 17 0 0.0 0.0 0.00 0.00 0.00 85 1014.6
20260902080059 17 0 0.0 0.0 0.00 0.00 0.00 85 1014.5
20260902075555 17 0 0.0 0.0 0.00 0.00 0.00 85 1014.5
20260902075055 17 0 0.0 4.8 0.00 0.00 0.00 85 1014.6
20260902074556 17 0 0.0 4.8 0.00 0.00 0.00 85 1014.5
20260902074055 17 0 1.6 4.8 0.00 0.00 0.00 85 1014.5
20260902073555 17 0 0.0 3.2 0.00 0.00 0.00 85 1014.5
20260902073105 17 0 0.0 3.2 0.00 0.00 0.00 85 1014.5
20260902072556 17 55 0.0 3.2 0.00 0.00 0.00 84 1014.5
20260902072058 17 26 0.0 3.2 0.00 0.00 0.00 84 1014.5
20260902071601 17 17 0.0 3.2 0.00 0.00 0.00 84 1014.5
20260902071056 17 0 0.0 0.0 0.00 0.00 0.00 84 1014.3
20260902070556 17 0 0.0 0.0 0.00 0.00 0.00 84 1014.3
20260902065557 17 0 0.0 3.2 0.00 0.00 0.00 84 1014.4
20260902065058 17 0 0.0 3.2 0.00 0.00 0.00 83 1014.3
20260902064604 17 0 0.0 3.2 0.00 0.00 0.00 83 1014.3
20260902064057 17 0 0.0 3.2 0.00 0.00 0.00 84 1014.3
20260902063555 17 0 0.0 3.2 0.00 0.00 0.00 84 1014.3
20260902063113 17 0 0.0 0.0 0.00 0.00 0.00 83 1014.2
20260902062554 17 0 0.0 0.0 0.00 0.00 0.00 83 1014.3
20260902062056 17 0 0.0 1.6 0.00 0.00 0.00 84 1014.3
20260902061625 17 0 0.0 1.6 0.00 0.00 0.00 83 1014.3
20260902061101 17 0 0.0 1.6 0.00 0.00 0.00 83 1014.3
20260902060555 17 0 0.0 0.0 0.00 0.00 0.00 83 1014.3
20260902060109 17 0 0.0 0.0 0.00 0.00 0.00 83 1014.2
20260902055554 17 0 0.0 0.0 0.00 0.00 0.00 83 1014.2
20260902055055 17 0 0.0 3.2 0.00 0.00 0.00 82 1014.2
20260902054556 17 0 0.0 3.2 0.00 0.00 0.00 82 1014.2
20260902054054 17 0 0.0 3.2 0.00 0.00 0.00 82 1014.2
20260902053554 17 0 0.0 1.6 0.00 0.00 0.00 82 1014.1
20260902053059 17 0 0.0 1.6 0.00 0.00 0.00 82 1014.1
20260902052558 17 0 0.0 0.0 0.00 0.00 0.00 82 1014.2
20260902052055 17 0 0.0 1.6 0.00 0.00 0.00 82 1014.2
20260902051614 17 0 0.0 1.6 0.00 0.00 0.00 82 1014.2
20260902051055 17 0 0.0 0.0 0.00 0.00 0.00 82 1014.1
20260902050558 17 0 0.0 1.6 0.00 0.00 0.00 82 1014.1
20260902045554 17 0 0.0 0.0 0.00 0.00 0.00 82 1014.0
20260902045051 18 0 0.0 0.0 0.00 0.00 0.00 81 1013.9
20260902044621 18 0 0.0 0.0 0.00 0.00 0.00 81 1013.9
20260902044052 18 0 0.0 3.2 0.00 0.00 0.00 81 1013.8
20260902043554 18 0 0.0 3.2 0.00 0.00 0.00 81 1013.7
20260902043055 18 0 0.0 3.2 0.00 0.00 0.00 80 1013.7
20260902042551 18 0 0.0 0.0 0.00 0.00 0.00 80 1013.6
20260902042055 18 0 0.0 0.0 0.00 0.00 0.00 80 1013.5
20260902041605 18 0 0.0 3.2 0.00 0.00 0.00 79 1013.5
20260902041057 18 0 0.0 3.2 0.00 0.00 0.00 79 1013.4
20260902040555 18 0 0.0 4.8 0.00 0.00 0.00 79 1013.4
20260902035554 18 335 0.0 3.2 0.00 0.00 0.00 78 1013.4
20260902035054 19 0 0.0 3.2 0.00 0.00 0.00 78 1013.3
20260902034601 19 0 0.0 0.0 0.00 0.00 0.00 77 1013.3
20260902034054 19 0 0.0 0.0 0.00 0.00 0.00 77 1013.3
20260902033551 19 0 0.0 0.0 0.00 0.00 0.00 77 1013.3
20260902033100 19 0 0.0 3.2 0.00 0.00 0.00 77 1013.2
20260902032557 19 0 0.0 6.4 0.00 0.00 0.00 76 1013.2
20260902032055 20 0 1.6 6.4 0.00 0.00 0.00 76 1013.1
20260902031621 20 0 0.0 9.7 0.00 0.00 0.00 76 1013.2
20260902031055 20 0 3.2 9.7 0.00 0.00 0.00 76 1013.2
20260902030555 20 264 3.2 9.7 0.00 0.00 0.00 77 1013.1
20260902025555 20 0 0.0 16.1 0.00 0.00 0.00 77 1013.0
20260902025055 20 292 6.4 16.1 0.00 0.00 0.00 76 1013.0
20260902024605 20 273 1.6 16.1 0.00 0.00 0.00 76 1012.9
20260902024054 20 166 4.8 16.1 0.00 0.00 0.00 76 1012.9
20260902023554 20 269 8.0 14.5 0.00 0.00 0.00 76 1012.8
20260902023103 20 276 6.4 14.5 0.00 0.00 0.00 75 1012.9
20260902022558 20 282 3.2 11.3 0.00 0.00 0.00 75 1012.7
20260902022051 20 181 3.2 9.7 0.00 0.00 0.00 75 1012.6
20260902021603 20 261 3.2 12.9 0.00 0.00 0.00 75 1012.7
20260902021055 20 240 3.2 12.9 0.00 0.00 0.00 74 1012.8
20260902020555 20 176 4.8 11.3 0.00 0.00 0.00 75 1012.7
20260902020101 20 239 6.4 16.1 0.00 0.00 0.00 75 1012.7
20260902015551 20 188 4.8 16.1 0.00 0.00 0.00 75 1012.7
20260902015055 21 297 9.7 16.1 0.00 0.00 0.00 74 1012.7
20260902014559 21 302 6.4 14.5 0.00 0.00 0.00 75 1012.8
20260902014056 21 306 4.8 16.1 0.00 0.00 0.00 75 1012.8
20260902013555 21 278 6.4 16.1 0.00 0.00 0.00 74 1012.7
20260902013105 21 277 8.0 14.5 0.00 0.00 0.00 74 1012.8
20260902012554 21 233 6.4 14.5 0.00 0.00 0.00 74 1012.8
20260902012056 21 146 8.0 14.5 0.00 0.00 0.00 73 1012.8
20260902011558 21 206 4.8 14.5 0.00 0.00 0.00 73 1012.7
20260902011058 22 261 4.8 14.5 0.00 0.00 0.00 73 1012.8
20260902010554 22 269 3.2 14.5 0.00 0.00 0.00 73 1012.9
20260902010105 21 235 4.8 17.7 0.00 0.00 0.00 73 1012.9
20260902005554 21 269 9.7 17.7 0.00 0.00 0.00 72 1012.9
20260902005056 21 283 4.8 17.7 0.00 0.00 0.00 72 1013.0
20260902004558 22 271 9.7 17.7 0.00 0.00 0.00 73 1013.0
20260902004056 22 267 6.4 24.1 0.00 0.00 0.00 72 1013.1
20260902003554 22 271 9.7 24.1 0.00 0.00 0.00 71 1013.1
20260902003105 22 276 11.3 19.3 0.00 0.00 0.00 71 1013.1
20260902002554 22 273 4.8 16.1 0.00 0.00 0.00 72 1013.1
20260902002055 22 189 8.0 17.7 0.00 0.00 0.00 70 1013.0
20260902001603 22 198 6.4 17.7 0.00 0.00 0.00 71 1013.0
20260902001054 22 180 6.4 16.1 0.00 0.00 0.00 71 1013.1
20260902000554 22 189 6.4 16.1 0.00 0.00 0.00 72 1013.0
20260902000055 22 185 8.0 16.1 0.00 0.00 0.00 72 1013.2
20260901235554 22 244 4.8 17.7 0.00 0.00 0.00 71 1013.1
20260901235055 22 194 8.0 17.7 0.00 0.00 0.00 70 1013.1
20260901234608 22 173 9.7 17.7 0.00 0.00 0.00 70 1013.2
20260901234053 22 256 8.0 17.7 0.00 0.00 0.00 71 1013.3
20260901233552 22 178 11.3 17.7 0.00 0.00 0.00 68 1013.2
20260901233104 22 288 8.0 19.3 0.00 0.00 0.00 71 1013.2
20260901232555 22 205 8.0 20.9 0.00 0.00 0.00 72 1013.2
20260901232059 22 254 9.7 22.5 0.00 0.00 0.00 72 1013.3
20260901231607 22 254 12.9 22.5 0.00 0.00 0.00 70 1013.2
20260901231054 22 287 9.7 22.5 0.00 0.00 0.00 69 1013.3
20260901230555 23 215 8.0 22.5 0.00 0.00 0.00 69 1013.4
20260901230108 23 250 6.4 20.9 0.00 0.00 0.00 70 1013.3
20260901225554 23 192 9.7 20.9 0.00 0.00 0.00 70 1013.5
20260901225054 23 310 8.0 17.7 0.00 0.00 0.00 70 1013.5
20260901224555 23 227 8.0 17.7 0.00 0.00 0.00 70 1013.5
20260901224054 23 252 8.0 19.3 0.00 0.00 0.00 71 1013.6
20260901223556 22 327 9.7 19.3 0.00 0.00 0.00 70 1013.5
20260901223100 23 245 11.3 20.9 0.00 0.00 0.00 69 1013.6
20260901222557 23 159 12.9 24.1 0.00 0.00 0.00 66 1013.5
20260901222057 23 187 9.7 24.1 0.00 0.00 0.00 69 1013.7
20260901221612 23 169 12.9 22.5 0.00 0.00 0.00 68 1013.6
20260901221055 23 222 9.7 22.5 0.00 0.00 0.00 69 1013.6
20260901220557 23 218 9.7 20.9 0.00 0.00 0.00 70 1013.6
20260901220059 23 163 9.7 20.9 0.00 0.00 0.00 69 1013.7
20260901215556 23 177 9.7 19.3 0.00 0.00 0.00 69 1013.8
20260901215055 23 211 11.3 25.7 0.00 0.00 0.00 69 1013.9
20260901214555 23 250 11.3 25.7 0.00 0.00 0.00 69 1013.9
20260901214055 23 194 11.3 19.3 0.00 0.00 0.00 69 1013.9
20260901213556 23 243 9.7 19.3 0.00 0.00 0.00 69 1014.0
20260901213105 23 274 8.0 16.1 0.00 0.00 0.00 69 1014.0
20260901212555 23 284 6.4 14.5 0.00 0.00 0.00 69 1014.0
20260901212055 23 183 6.4 19.3 0.00 0.00 0.00 69 1013.9
20260901211557 23 296 11.3 19.3 0.00 0.00 0.00 69 1014.1
20260901211054 23 274 8.0 19.3 0.00 0.00 0.00 69 1014.1
20260901210555 23 271 6.4 19.3 0.00 0.00 0.00 69 1014.1
20260901210056 23 219 9.7 17.7 0.00 0.00 0.00 69 1014.1
20260901205555 23 202 9.7 17.7 0.00 0.00 0.00 69 1014.2
20260901205056 23 260 8.0 20.9 0.00 0.00 0.00 69 1014.3
20260901204607 23 271 8.0 20.9 0.00 0.00 0.00 70 1014.3
20260901204055 23 192 6.4 17.7 0.00 0.00 0.00 69 1014.4
20260901203558 23 189 9.7 17.7 0.00 0.00 0.00 70 1014.4
20260901203104 23 250 11.3 17.7 0.00 0.00 0.00 71 1014.2
20260901202555 23 161 8.0 17.7 0.00 0.00 0.00 70 1014.4
20260901202056 23 247 9.7 17.7 0.00 0.00 0.00 69 1014.4
20260901201600 23 217 6.4 17.7 0.00 0.00 0.00 70 1014.5
20260901201056 23 271 8.0 19.3 0.00 0.00 0.00 70 1014.5
20260901200554 23 248 9.7 19.3 0.00 0.00 0.00 71 1014.6
20260901200056 23 182 8.0 19.3 0.00 0.00 0.00 70 1014.7
20260901195554 23 309 8.0 19.3 0.00 0.00 0.00 71 1014.7
20260901195057 23 163 6.4 17.7 0.00 0.00 0.00 70 1014.6
20260901194602 23 189 4.8 17.7 0.00 0.00 0.00 71 1014.6
20260901194056 23 173 4.8 17.7 0.00 0.00 0.00 72 1014.7
20260901193555 22 194 9.7 17.7 0.00 0.00 0.00 71 1014.8
20260901193101 23 178 11.3 22.5 0.00 0.00 0.00 70 1014.9
20260901192558 23 242 8.0 22.5 0.00 0.00 0.00 71 1014.8
20260901192055 23 179 8.0 19.3 0.00 0.00 0.00 71 1014.9
20260901191600 23 195 8.0 16.1 0.00 0.00 0.00 70 1014.9
20260901191055 23 180 8.0 16.1 0.00 0.00 0.00 69 1014.9
20260901190555 23 259 6.4 16.1 0.00 0.00 0.00 69 1014.9
20260901190104 23 266 6.4 16.1 0.00 0.00 0.00 69 1014.9
20260901185555 23 259 4.8 17.7 0.00 0.00 0.00 70 1014.9
20260901185058 23 286 3.2 17.7 0.00 0.00 0.00 70 1014.8
20260901184605 23 119 6.4 16.1 0.00 0.00 0.00 70 1014.9
20260901184055 23 211 4.8 11.3 0.00 0.00 0.00 71 1014.8
20260901183555 23 138 3.2 12.9 0.00 0.00 0.00 71 1014.9
20260901183119 23 68 1.6 12.9 0.00 0.00 0.00 72 1014.8
20260901182555 22 212 1.6 11.3 0.00 0.00 0.00 73 1014.8
20260901182058 22 197 3.2 11.3 0.00 0.00 0.00 74 1014.9
20260901181558 22 286 4.8 11.3 0.00 0.00 0.00 74 1014.9
20260901181054 22 242 3.2 11.3 0.00 0.00 0.00 75 1014.9
20260901180554 22 0 4.8 12.9 0.00 0.00 0.00 74 1015.0
20260901180104 22 248 4.8 12.9 0.00 0.00 0.00 74 1015.0
20260901175557 22 192 4.8 11.3 0.00 0.00 0.00 74 1015.0
20260901175056 22 211 1.6 9.7 0.00 0.00 0.00 74 1015.0
20260901174603 22 205 3.2 12.9 0.00 0.00 0.00 74 1014.8
20260901174055 22 233 4.8 14.5 0.00 0.00 0.00 74 1014.9
20260901173558 22 205 3.2 14.5 0.00 0.00 0.00 75 1014.9
20260901173138 22 206 4.8 14.5 0.00 0.00 0.00 75 1014.9
20260901172557 21 242 1.6 11.3 0.00 0.00 0.00 76 1014.9
20260901172055 21 272 4.8 12.9 0.00 0.00 0.00 75 1014.9
20260901171605 22 227 6.4 12.9 0.00 0.00 0.00 74 1014.9
20260901171058 22 259 1.6 6.4 0.00 0.00 0.00 73 1014.8
20260901170555 22 211 3.2 6.4 0.00 0.00 0.00 74 1014.8
20260901165554 21 182 0.0 8.0 0.00 0.00 0.00 74 1014.8
20260901165058 21 198 1.6 8.0 0.00 0.00 0.00 75 1014.8
20260901164556 21 47 0.0 9.7 0.00 0.00 0.00 76 1014.9
20260901164055 21 0 0.0 9.7 0.00 0.00 0.00 76 1014.7
20260901163555 21 234 3.2 11.3 0.00 0.00 0.00 76 1014.8
20260901163119 21 170 1.6 11.3 0.00 0.00 0.00 77 1014.8
20260901162554 20 88 1.6 11.3 0.00 0.00 0.00 78 1014.8
20260901162055 20 298 1.6 9.7 0.00 0.00 0.00 78 1014.8
20260901161608 20 175 1.6 6.4 0.00 0.00 0.00 81 1014.7
20260901161055 20 105 0.0 8.0 0.00 0.00 0.00 82 1014.7
20260901160555 19 253 1.6 8.0 0.00 0.00 0.00 82 1014.8
20260901160107 19 158 4.8 8.0 0.00 0.00 0.00 82 1014.8
20260901155555 19 177 1.6 11.3 0.00 0.00 0.00 83 1014.8
20260901155055 19 164 4.8 14.5 0.00 0.00 0.00 83 1014.8
20260901154606 18 221 4.8 16.1 0.00 0.00 0.00 83 1014.6
20260901154058 18 261 6.4 16.1 0.00 0.00 0.00 84 1014.6
20260901153555 18 184 0.0 9.7 0.00 0.00 0.00 85 1014.6
20260901153105 18 165 3.2 9.7 0.00 0.00 0.00 84 1014.7
20260901152555 18 304 0.0 6.4 0.00 0.00 0.00 85 1014.7
20260901152055 18 0 0.0 6.4 0.00 0.00 0.00 86 1014.6
20260901151612 18 0 0.0 6.4 0.00 0.00 0.00 86 1014.5
20260901151055 18 180 0.0 0.0 0.00 0.00 0.00 87 1014.5
20260901150555 18 0 0.0 0.0 0.00 0.00 0.00 88 1014.4
20260901150103 18 0 0.0 0.0 0.00 0.00 0.00 89 1014.4
20260901145555 18 0 0.0 3.2 0.00 0.00 0.00 90 1014.2
20260901145055 17 0 0.0 3.2 0.00 0.00 0.00 90 1014.2
20260901144608 17 299 0.0 1.6 0.00 0.00 0.00 90 1014.1
20260901144058 17 0 0.0 0.0 0.00 0.00 0.00 91 1014.0
20260901143554 17 0 0.0 1.6 0.00 0.00 0.00 92 1013.9
20260901143105 17 0 0.0 1.6 0.00 0.00 0.00 92 1013.9
20260901142555 17 0 0.0 0.0 0.00 0.00 0.00 93 1013.8
20260901142055 16 0 0.0 0.0 0.00 0.00 0.00 93 1013.7
20260901141604 16 0 0.0 3.2 0.00 0.00 0.00 92 1013.8
20260901141058 16 0 0.0 3.2 0.00 0.00 0.00 93 1013.7
20260901140554 16 332 0.0 1.6 0.00 0.00 0.00 93 1013.7
20260901140104 16 0 0.0 3.2 0.00 0.00 0.00 93 1013.8
20260901135556 16 0 1.6 3.2 0.00 0.00 0.00 93 1013.8
20260901135056 16 0 0.0 4.8 0.00 0.00 0.00 92 1013.7
20260901134557 16 0 0.0 4.8 0.00 0.00 0.00 92 1013.6
20260901134055 16 338 0.0 3.2 0.00 0.00 0.00 92 1013.4
20260901133558 16 0 0.0 4.8 0.00 0.00 0.00 92 1013.6
20260901133059 16 336 0.0 4.8 0.00 0.00 0.00 92 1013.6
20260901132557 16 0 0.0 3.2 0.00 0.00 0.00 92 1013.6
20260901132054 16 0 0.0 6.4 0.00 0.00 0.00 92 1013.7
20260901131601 16 0 1.6 6.4 0.00 0.00 0.00 93 1013.6
20260901131057 16 346 1.6 6.4 0.00 0.00 0.00 93 1013.6